Simultaneous Nadir Overpasses (SNOs) Predictions

Prediction of SNOs between LANDSAT-8 and METOP-B Satellite Orbit:

Table of predicted SNOs for the next 14.0 days since TLE Epoch: 1/31/2015
Index Date (LANDSAT-8) Time (LANDSAT-8) Lat,Lon (LANDSAT-8) SZA (LANDSAT-8 ) Date (METOP-B) Time (METOP-B) Lat,Lon (METOP-B) SZA (METOP-B ) Distance(km) Time Diff (sec)
1 02/01/2015 04:32:13 -81.03, -29.81 80.27 02/01/2015 04:31:14 -81.03, -29.85 80.29 0.92 59
2 02/01/2015 05:21:38 81.06, 138.26 99.79 02/01/2015 05:21:53 81.06, 138.24 99.79 0.43 15
3 02/04/2015 00:06:28 -81.03, 36.56 81.10 02/04/2015 00:05:37 -81.02, 36.42 81.13 2.45 51
4 02/04/2015 00:55:53 81.06,-155.40 98.96 02/04/2015 00:56:16 81.05,-155.49 98.96 1.67 23
5 02/06/2015 19:40:41 -81.04, 103.16 81.93 02/06/2015 19:39:58 -81.03, 103.01 81.96 2.91 43
6 02/06/2015 20:30:06 81.07, -88.81 98.12 02/06/2015 20:30:37 81.06, -88.91 98.12 1.99 31
7 02/09/2015 15:14:55 -81.04, 169.65 82.81 02/09/2015 15:14:20 -81.04, 169.54 82.84 2.15 35
8 02/09/2015 16:04:20 81.07, -22.34 97.24 02/09/2015 16:04:59 81.07, -22.39 97.25 1.17 39
9 02/12/2015 10:49:09 -81.04,-123.99 83.73 02/12/2015 10:48:42 -81.04,-123.99 83.75 0.16 27




NCC Satellite Simultaneous Nadir Overpasses (SNOs) Prediction Service
